Time,B instrument,Bx,By,Bz,sigma B,Ion instrument,Status,Tp_par,Tp_perp,carrot,r_sun,clat,clong,earth_he_angle,n_p,vp_x,vp_y,vp_z,vth_p_par,vth_p_perp
1980-02-09 00:00:09,1,-3.54,-4.09,-1.82,0.202237,1,1,18830.7,21031.3,1691,0.9672389,1.0537624,80.082275,288.06274,8.00664,299.814,-12.4823,-15.2856,17.6316,18.6334
1980-02-09 00:00:50,1,-3.5,-4.08182,-1.82727,0.27604,1,1,24845.5,21801.4,1691,0.9672389,1.0537624,80.074463,288.06274,7.20404,300.564,-10.4665,-16.6832,20.2526,18.9714
1980-02-09 00:01:30,1,-3.37273,-3.98182,-1.93636,0.330789,1,1,16646.6,20712.9,1691,0.96724051,1.0536995,80.070313,288.0625,8.09066,300.14,-12.066,-14.7417,16.5775,18.4918
1980-02-09 00:02:11,1,-3.37273,-3.97273,-2.00909,0.340151,1,1,22607.1,20899.7,1691,0.96724218,1.0536375,80.062256,288.06226,7.43776,300.515,-8.32639,-16.157,19.3188,18.575
1980-02-09 00:02:51,1,-3.37273,-3.97273,-1.97273,0.391437,1,1,19517.6,19368.0,1691,0.96724218,1.0536366,80.05835,288.06226,8.06385,301.415,-10.1444,-16.2235,17.9503,17.8814
1980-02-09 00:03:32,1,-3.49091,-4.08182,-1.71818,0.248965,1,1,20439.6,22887.4,1691,0.96724379,1.0535746,80.050293,288.06201,8.03553,299.471,-7.29113,-14.5427,18.3693,19.4382
1980-02-09 00:04:12,1,-3.64545,-3.85455,-1.49091,0.416002,1,1,16004.4,19499.4,1691,0.96724546,1.0535116,80.042236,288.06177,8.7688,298.073,-11.2393,-12.9464,16.2546,17.9419
1980-02-09 00:04:53,1,-3.59091,-4.13636,-1.72727,0.366353,1,1,19101.9,25951.7,1691,0.96724546,1.0535116,80.03833,288.06177,7.86933,296.925,-8.39314,-13.3087,17.7581,20.6986
1980-02-09 00:05:33,1,-3.82,-4.08,-1.6,0.425676,1,1,18793.7,21563.4,1691,0.96724713,1.0534496,80.030273,288.06152,8.55331,298.197,-10.9707,-13.2508,17.6142,18.8676
1980-02-09 00:06:14,1,-3.81818,-3.93636,-1.41818,0.472727,1,1,18605.5,24860.3,1691,0.96724874,1.0533867,80.026367,288.06152,8.06698,295.895,-9.66919,-11.7393,17.5258,20.2587
1980-02-09 00:06:54,1,-4.07273,-3.79091,-1.09091,0.478634,1,1,15639.9,19735.2,1691,0.96724874,1.0533867,80.018555,288.06152,8.55168,293.728,-12.9063,-7.79932,16.0685,18.0501
1980-02-09 00:07:35,1,-3.97273,-4.00909,-1.06364,0.428142,1,1,16920.9,25652.3,1691,0.96725041,1.0533247,80.010498,288.06128,7.75202,294.421,-9.23474,-10.2258,16.7136,20.5788
1980-02-09 00:08:15,1,-3.95,-4.11,-0.83,0.455522,1,1,18546.9,20093.2,1691,0.96725208,1.0532618,80.006348,288.06104,8.43381,293.623,-14.3019,-5.4834,17.4982,18.213
1980-02-09 00:08:56,1,-3.84545,-3.7,-1.2,0.551632,1,1,14482.7,28176.6,1691,0.96725208,1.0532618,79.998535,288.06104,7.81957,294.858,-11.6154,-10.0369,15.4626,21.5676
1980-02-09 00:09:36,1,-3.34,-4.04,-1.38,0.253772,1,1,15521.3,20078.7,1691,0.96725368,1.0531998,79.994385,288.06079,8.48749,297.012,-12.7555,-12.6508,16.0074,18.2065
1980-02-09 00:10:17,1,-3.67273,-4.02727,-1.05455,0.450344,1,1,21357.8,20071.8,1691,0.96725535,1.0531368,79.986328,288.06055,7.5149,296.422,-9.1852,-14.9977,18.7774,18.2033
1980-02-09 00:10:57,1,-3.57,-3.6,-1.18,0.560089,1,1,17873.5,20474.6,1691,0.96725535,1.0531368,79.982422,288.06055,8.1555,297.706,-11.6141,-13.9877,17.1776,18.3851
1980-02-09 00:11:38,1,-3.03636,-3.90909,-1.4,0.261907,1,1,23535.0,23013.8,1691,0.96725696,1.0530748,79.974609,288.06055,7.91567,301.111,-10.1925,-16.9662,19.7113,19.4918
1980-02-09 00:12:18,1,-3.09167,-3.86667,-1.56667,0.346711,1,1,18610.7,19923.5,1691,0.96725863,1.0530119,79.966553,288.0603,8.14618,300.891,-11.2743,-17.4416,17.5283,18.136
1980-02-09 00:12:59,1,-4.12727,-3.49091,-1.12727,0.184077,1,1,21111.5,18650.1,1691,0.96725863,1.0530119,79.962646,288.0603,6.99537,300.887,-9.30115,-17.6852,18.6688,17.5468
1980-02-09 00:13:39,1,-4.26,-3.73,-0.97,0.415452,1,1,16517.7,16139.2,1691,0.9672603,1.0529499,79.95459,288.06006,7.77048,299.64,-12.9714,-17.011,16.5133,16.3229
1980-02-09 00:14:20,1,-5.10909,-3.27273,-0.636364,0.464794,1,1,17395.9,19824.8,1691,0.96726191,1.052887,79.950439,288.05981,7.06756,292.848,-9.1581,-12.4708,16.9466,18.091
1980-02-09 00:15:00,1,-5.33,-3.44,0.24,0.448219,1,1,17126.1,16876.9,1691,0.96726358,1.052825,79.942383,288.05957,7.92882,295.049,-11.5043,-12.7907,16.8146,16.6919
1980-02-09 00:15:41,1,-5.68182,-3.34545,0.772727,0.424848,1,1,17117.9,13746.8,1691,0.96726358,1.052825,79.93457,288.05957,7.77788,293.296,-6.70436,-9.60094,16.8106,15.0647
1980-02-09 00:16:21,1,-5.55,-3.06,0.38,0.780064,1,1,16749.4,16959.9,1691,0.96726525,1.052762,79.93042,288.05933,8.20439,293.707,-10.7716,-15.472,16.6287,16.7329
1980-02-09 00:17:02,1,-6.06,-3.88,1.29,0.639453,1,1,13685.4,14123.8,1691,0.96726686,1.0527,79.922607,288.05933,7.10523,287.338,-5.46135,-4.24209,15.031,15.2698
1980-02-09 00:17:42,1,-5.31,-4.96,1.36,0.337194,1,1,19213.5,17329.9,1691,0.96726686,1.0527,79.918701,288.05933,8.0172,292.676,-15.8285,-3.67438,17.8099,16.9144
1980-02-09 00:18:23,1,-5.44545,-4.62727,1.01818,0.471502,1,1,24192.5,15044.7,1691,0.96726853,1.0526371,79.910645,288.05908,6.99545,291.861,-14.3739,-7.39463,19.9847,15.7598
1980-02-09 00:19:03,1,-5.7,-4.51,1.28,0.887975,1,1,17304.2,15132.2,1691,0.9672702,1.0525751,79.906494,288.05884,8.31383,294.115,-13.9131,-10.9642,16.9018,15.8055
1980-02-09 00:19:44,1,-5.9,-3.82,1.5,0.208806,1,1,14653.0,19068.0,1691,0.9672702,1.0525751,79.898682,288.05884,7.12715,288.644,-14.2395,-3.40012,15.5532,17.7423
1980-02-09 00:20:24,1,-6.15,-3.92,1.8,0.283019,1,1,18087.5,19234.5,1691,0.9672718,1.0525122,79.890625,288.05859,7.48017,288.279,-12.887,-1.798,17.2801,17.8196
1980-02-09 00:21:05,1,-6.02727,-3.85455,1.81818,0.263793,1,1,13830.0,20126.4,1691,0.96727347,1.0524502,79.886475,288.05835,7.06617,286.746,-15.4735,0.372474,15.1101,18.2281
1980-02-09 00:21:45,1,-6.14,-3.68,1.82,0.396989,1,1,16823.0,18815.1,1691,0.96727347,1.0524502,79.878662,288.05835,8.37355,285.864,-11.1814,-0.675555,16.6652,17.6243
1980-02-09 00:22:26,1,-6.21,-3.86,1.96,0.322025,1,1,14924.9,18134.9,1691,0.96727508,1.0523872,79.874756,288.05835,6.89753,286.549,-6.87558,-1.98023,15.6969,17.3028
1980-02-09 00:23:06,1,-6.23,-3.96,1.82,0.26096,1,1,20453.3,19448.6,1691,0.96727675,1.0523252,79.866699,288.05811,7.86809,287.051,-11.0867,-0.370266,18.3755,17.9185
1980-02-09 00:23:47,1,-6.32727,-3.56364,1.95455,0.291477,1,1,13727.6,17526.7,1691,0.96727675,1.0523252,79.862793,288.05811,6.68533,286.86,-7.9125,-2.78501,15.0541,17.0101
1980-02-09 00:24:27,1,-6.26667,-3.75556,1.92222,0.332963,1,1,19802.6,19330.6,1691,0.96727842,1.0522623,79.854736,288.05786,8.03018,289.68,-12.5318,-3.7883,18.0809,17.8641
1980-02-09 00:25:08,1,-6.21,-3.64,1.66,0.337194,1,1,14052.0,20578.2,1691,0.96728003,1.0522003,79.84668,288.05762,7.11708,288.508,-12.8172,-4.80117,15.231,18.4315
1980-02-09 00:25:48,1,-6.11,-3.61,1.8,0.325269,1,1,20352.7,17668.5,1691,0.96728003,1.0522003,79.842773,288.05762,8.23555,289.667,-12.3507,-5.619,18.3303,17.0788
1980-02-09 00:26:29,1,-6.18,-3.3,1.75,0.384838,1,1,13389.2,19496.3,1691,0.9672817,1.0521374,79.834717,288.05737,6.82985,286.312,-9.51104,-0.422,14.8674,17.9405
1980-02-09 00:27:09,1,-5.41,-3.53,0.64,0.559821,1,1,19361.9,16982.3,1691,0.96728337,1.0520754,79.830811,288.05737,8.79401,297.015,-13.0973,-15.9804,17.8785,16.7439
1980-02-09 00:27:50,1,-5.9,-3.39,1.52,0.616847,1,1,12284.1,21014.5,1691,0.96728337,1.0520754,79.822998,288.05737,6.37547,289.272,-11.4966,-6.38148,14.2406,18.6259
1980-02-09 00:28:30,1,-6.24,-3.49,2.43,0.378682,1,1,20891.9,19703.1,1691,0.96728498,1.0520124,79.814941,288.05713,7.3373,286.306,-13.7346,0.483459,18.5715,18.0354
1980-02-09 00:29:11,1,-6.38182,-3.41818,3.11818,0.305866,1,1,13345.7,22289.0,1691,0.96728665,1.0519505,79.810791,288.05688,7.21068,286.147,-14.7012,3.65217,14.8432,19.1824
1980-02-09 00:29:51,1,-6.12222,-3.41111,2.61111,0.26943,1,1,19614.8,18654.3,1691,0.96728665,1.0519505,79.802979,288.05688,7.92162,285.965,-13.8552,2.86713,17.9949,17.5488
1980-02-09 00:30:32,1,-6.31,-3.51,2.21,0.307734,1,1,12844.6,21153.0,1691,0.96728832,1.0518875,79.798828,288.05664,7.26354,285.02,-15.3812,1.86373,14.5619,18.6872
1980-02-09 00:31:12,1,-6.29,-3.33,2.06,0.378682,1,1,19268.9,18611.4,1691,0.96728992,1.0518255,79.790771,288.0564,7.51332,284.255,-11.7894,0.255618,17.8355,17.5286
1980-02-09 00:31:53,1,-6.16,-3.24,1.98,0.28,1,1,14677.0,22462.1,1691,0.96728992,1.0518246,79.786865,288.0564,7.20613,284.88,-11.5114,3.10301,15.566,19.2568
1980-02-09 00:32:33,1,-5.84444,-3.33333,1.84444,0.362774,1,1,20939.0,20945.8,1691,0.96729159,1.0517626,79.778809,288.05615,8.21886,286.23,-12.2136,-1.16943,18.5924,18.5954
1980-02-09 00:33:14,1,-6.25,-3.5,2.31,0.255734,1,1,13305.1,20286.0,1691,0.9672932,1.0516996,79.770996,288.05615,7.31525,285.313,-14.9691,1.29185,14.8206,18.3002
1980-02-09 00:33:54,1,-6.51,-3.04,2.14,0.37108,1,1,17720.1,18483.6,1691,0.9672932,1.0516996,79.76709,288.05615,8.48374,282.944,-10.4852,1.54354,17.1038,17.4683
1980-02-09 00:34:35,1,-5.95,-3.12,1.46,0.364005,1,1,13926.5,22349.3,1691,0.96729487,1.0516376,79.759033,288.05591,7.60562,285.824,-11.7723,-1.76562,15.1628,19.2083
1980-02-09 00:35:15,1,-5.53636,-3.57273,1.36364,0.348076,1,1,18835.5,18177.2,1691,0.96729654,1.0515747,79.754883,288.05566,8.27578,288.487,-13.8774,-5.95111,17.6338,17.3229
1980-02-09 00:35:56,1,-5.44,-3.64,1.38,0.390384,1,1,14387.8,18753.7,1691,0.96729654,1.0515747,79.74707,288.05566,7.02097,287.526,-16.9029,-3.49005,15.4119,17.5955
1980-02-09 00:36:36,1,-5.47,-3.8,1.24,0.323265,1,1,18561.6,18059.4,1691,0.96729815,1.0515127,79.74292,288.05542,7.84901,285.983,-11.4006,-3.6485,17.5051,17.2667
1980-02-09 00:37:17,1,-5.9,-3.71,1.7,0.287924,1,1,15077.8,20007.8,1691,0.96729982,1.0514498,79.734863,288.05518,7.40349,285.194,-10.2552,-3.89686,15.7771,18.1743
1980-02-09 00:37:57,1,-5.45556,-3.74444,1.62222,0.405518,1,1,18917.5,16610.8,1691,0.96729982,1.0514498,79.727051,288.05518,8.39128,285.823,-12.1824,-3.12133,17.6722,16.5597
1980-02-09 00:38:38,1,-5.46,-3.83,1.66,0.372693,1,1,16275.1,20028.4,1691,0.96730149,1.0513878,79.723145,288.05518,7.30177,286.611,-14.5796,-4.08964,16.3915,18.1837
1980-02-09 00:39:18,1,-5.54,-3.6,1.56,0.280713,1,1,17993.4,17540.2,1691,0.9673031,1.0513248,79.715088,288.05493,7.76117,285.476,-11.5938,-3.35004,17.2351,17.0167
1980-02-09 00:39:59,1,-5.09,-4.4,1.66,0.466154,1,1,18110.1,17416.3,1691,0.9673031,1.0513248,79.711182,288.05493,7.34656,285.864,-6.79841,-3.41363,17.2909,16.9565
1980-02-09 00:40:39,1,-5.31111,-3.98889,1.5,0.528917,1,1,18310.5,17791.0,1691,0.96730477,1.0512629,79.703125,288.05469,7.70197,285.537,-10.7134,-3.8904,17.3863,17.1379
1980-02-09 00:41:20,1,-5.05,-4.12,1.54,0.445533,1,1,15855.8,15992.0,1691,0.96730638,1.0511999,79.695068,288.05444,6.77979,287.71,-16.2147,-5.71933,16.179,16.2483
1980-02-09 00:42:00,1,-5.21818,-3.9,1.22727,0.480358,1,1,19448.6,18320.8,1691,0.96730804,1.0511379,79.690918,288.0542,8.21273,285.458,-12.3826,-1.56875,17.9185,17.3912
1980-02-09 00:42:41,1,-4.62,-4.46,0.88,0.370945,1,1,13810.1,17229.8,1691,0.96730804,1.0511379,79.683105,288.0542,6.56085,284.765,-7.64023,0.0747749,15.0993,16.8654
1980-02-09 00:43:21,1,-4.84444,-4.15556,1.24444,0.510628,1,1,19232.0,18958.5,1691,0.96730971,1.051075,79.678955,288.05396,7.98058,285.063,-11.6931,-1.77242,17.8185,17.6913
1980-02-09 00:44:02,1,-4.73,-4.43,1.31,0.470213,1,1,26226.5,17979.5,1691,0.96731132,1.051013,79.671143,288.05396,7.20752,288.659,-8.59825,-6.19563,20.8079,17.2285
1980-02-09 00:44:42,1,-4.86,-4.55,1.3,0.323883,1,1,20853.4,21458.2,1691,0.96731132,1.051013,79.667236,288.05396,7.4533,288.977,-10.6107,-5.60576,18.5544,18.8215
1980-02-09 00:45:23,1,-4.96,-3.89,1.49,0.558749,1,1,24012.3,17301.3,1691,0.96731299,1.0509501,79.65918,288.05371,6.52548,289.557,-14.0281,-6.53195,19.9101,16.9004
1980-02-09 00:46:03,1,-4.7,-3.96364,0.754545,0.442383,1,1,22650.9,24104.1,1691,0.96731466,1.0508881,79.651123,288.05347,7.83541,288.685,-12.2906,-3.47273,19.3375,19.9482
1980-02-09 00:46:44,1,-4.42727,-3.92727,0.627273,0.655429,1,1,20209.0,19577.9,1691,0.96731466,1.0508881,79.647217,288.05347,6.67055,287.161,-15.9676,3.03784,18.2654,17.978
1980-02-09 00:47:25,1,-4.53333,-4.5,1.25556,0.294811,1,1,23857.8,21422.4,1691,0.96731627,1.0508251,79.63916,288.05322,7.51969,289.488,-13.2525,-5.09328,19.846,18.8058
1980-02-09 00:48:05,1,-4.49,-4.46,1.83,0.171464,1,1,26568.7,16665.5,1691,0.96731794,1.0507631,79.63501,288.05298,7.08879,288.959,-13.0658,-4.40952,20.9432,16.587
1980-02-09 00:48:45,1,-4.73,-4.55,2.33,0.467654,1,1,21839.6,20112.2,1691,0.96731794,1.0507631,79.627197,288.05298,7.53769,291.725,-14.5841,-1.30794,18.988,18.2217
1980-02-09 00:49:26,1,-4.58182,-4.43636,1.54545,0.919935,1,1,28618.6,17507.6,1691,0.96731961,1.0507002,79.619385,288.05298,7.17731,289.25,-11.5316,-4.48866,21.7361,17.0009
1980-02-09 00:50:06,1,-3.98,-3.94,-4.44089e-17,1.02859,1,1,22655.0,22661.1,1691,0.96732122,1.0506382,79.615234,288.05273,7.91802,292.565,-11.8154,-7.84474,19.3393,19.3418
1980-02-09 00:50:47,1,-3.07273,-3.36364,-1.46364,0.777685,1,1,29607.8,24355.6,1691,0.96732122,1.0506382,79.607422,288.05273,7.0955,303.13,-3.59214,-15.8649,22.1086,20.052
1980-02-09 00:51:27,1,-2.2,-2.74545,-2.01818,0.391226,1,1,22704.8,22573.2,1691,0.96732289,1.0505753,79.603271,288.05249,6.76426,296.59,-7.73884,-6.6085,19.3605,19.3043
1980-02-09 00:52:08,1,-1.99091,-2.65455,-2.26364,0.426595,1,1,29184.4,21932.5,1691,0.9673245,1.0505133,79.595215,288.05225,6.9339,290.261,-11.2015,-4.3407,21.9499,19.0284
1980-02-09 00:52:49,1,-2.02,-2.58,-2.34,0.3995,1,1,22561.7,20594.8,1691,0.9673245,1.0505133,79.591309,288.05225,6.78168,291.441,-10.8758,-4.41667,19.2994,18.439
1980-02-09 00:53:29,1,-2.07,-3.21,-1.67,0.46594,1,1,27475.1,18107.8,1691,0.96732616,1.0504503,79.583252,288.052,6.97966,289.14,-14.138,-6.20825,21.2975,17.2898
1980-02-09 00:54:09,1,-2.17,-2.98,-1.75,0.486004,1,1,23785.3,20053.5,1691,0.96732783,1.0503883,79.575195,288.05176,7.70401,290.373,-12.6503,-6.15842,19.8158,18.195
1980-02-09 00:54:50,1,-2.56,-3.27,-1.96,0.459239,1,1,27848.1,17005.8,1691,0.96732783,1.0503883,79.571289,288.05176,6.21413,289.148,-13.8532,-0.927795,21.4415,16.7554
1980-02-09 00:55:30,1,-2.33333,-3.31111,-1.77778,0.483557,1,1,20017.2,18257.8,1691,0.96732944,1.0503254,79.563477,288.05176,7.16333,291.361,-12.2774,-5.56907,18.1786,17.3613
1980-02-09 00:56:11,1,-2.28,-2.68,-1.97,0.278029,1,1,29743.6,15950.2,1691,0.96733111,1.0502634,79.559326,288.05151,6.68409,287.413,-11.8244,-5.74587,22.1592,16.2271
1980-02-09 00:56:52,1,-2.24,-3.03,-1.81,0.461952,1,1,25491.3,20938.7,1691,0.96733111,1.0502634,79.551514,288.05151,7.26519,289.691,-12.1227,-5.5219,20.5142,18.5923
1980-02-09 00:57:32,1,-2.37,-2.71,-1.73,0.226053,1,1,27532.1,20154.0,1691,0.96733278,1.0502005,79.547363,288.05127,7.66583,286.959,-15.8962,-6.63887,21.3195,18.2406
1980-02-09 00:58:53,1,-2.23,-2.49,-1.57,0.356511,1,1,26438.3,20747.7,1691,0.96733439,1.0501385,79.531494,288.05103,8.29361,287.018,-13.8537,-7.85545,20.8917,18.5073
1980-02-09 00:59:33,1,-2.59,-2.79,-1.52,0.315278,1,1,25578.0,22179.4,1691,0.96733606,1.0500755,79.527344,288.05078,8.45659,288.942,-13.6489,-7.32177,20.549,19.1352
1980-02-09 01:00:14,1,-2.44,-2.69,-1.51,0.436119,1,1,22704.2,23574.5,1691,0.96733773,1.0500135,79.519531,288.05078,8.64125,288.236,-13.8817,-7.8036,19.3603,19.7278
1980-02-09 01:00:54,1,-2.55,-2.33,-1.88,0.371753,1,1,23634.8,22431.2,1691,0.96733773,1.0500135,79.515625,288.05078,8.92477,290.307,-10.4888,-8.36463,19.753,19.2435
1980-02-09 01:01:35,1,-2.73,-3.44,-0.66,1.03388,1,1,30816.8,22115.8,1691,0.96733934,1.0499506,79.507568,288.05054,9.07065,290.629,-11.1057,-14.0038,22.5554,19.1077
1980-02-09 01:02:16,1,-2.56,-3.23,-1.12,0.538609,1,1,20273.3,22945.2,1691,0.96734101,1.0498886,79.499512,288.05029,9.37246,288.899,-14.3719,-7.42861,18.2945,19.4627
1980-02-09 01:02:56,1,-2.77273,-3.67273,-0.881818,0.419957,1,1,22143.3,22751.4,1691,0.96734101,1.0498877,79.495605,288.05029,8.75847,287.52,-16.3032,-7.63755,19.1196,19.3804
1980-02-09 01:03:36,1,-2.67,-3.76,-0.99,0.383927,1,1,22088.8,21601.9,1691,0.96734262,1.0498257,79.487549,288.05005,8.55773,289.499,-12.3831,-9.31191,19.0961,18.8844
1980-02-09 01:04:17,1,-2.50909,-3.57273,-1.40909,0.455272,1,1,24943.7,20396.6,1691,0.96734428,1.0497627,79.483398,288.0498,8.12299,289.37,-10.7695,-9.06305,20.2926,18.35
1980-02-09 01:04:57,1,-3.33,-3.81,-0.3,0.372827,1,1,25131.8,22354.4,1691,0.96734428,1.0497627,79.475586,288.0498,8.83613,287.607,-11.5014,-8.42035,20.369,19.2105
1980-02-09 01:05:38,1,-3.67,-3.44,0.1,0.542679,1,1,25442.5,19571.1,1691,0.96734589,1.0497007,79.471436,288.04956,8.17362,286.66,-10.0966,-7.96614,20.4945,17.9749
1980-02-09 01:06:19,1,-3.83333,-3.61111,0.244444,0.562841,1,1,23295.3,21849.7,1691,0.96734756,1.0496378,79.463623,288.04956,8.69694,284.782,-11.574,-8.04871,19.6106,18.9924
1980-02-09 01:06:59,1,-4.04,-3.44,-0.46,0.270555,1,1,24274.4,22532.3,1691,0.96734756,1.0496378,79.455811,288.04956,8.50768,284.739,-10.5882,-6.6256,20.0185,19.2868
1980-02-09 01:07:40,1,-4.28,-3.3,0.29,0.469574,1,1,20419.3,23265.1,1691,0.96734917,1.0495758,79.45166,288.04932,8.55592,284.941,-10.2335,-7.57602,18.3602,19.5979
1980-02-09 01:08:20,1,-3.04,-3.82,-0.37,1.00404,1,1,27250.2,20754.2,1691,0.96735084,1.0495129,79.443604,288.04907,8.38804,283.333,-11.0537,-4.44097,21.2101,18.5102
1980-02-09 01:09:00,1,-2.56,-3.95,-0.51,0.389615,1,1,24996.7,22685.5,1691,0.96735251,1.0494509,79.439453,288.04883,8.31547,291.388,-12.7143,-6.9343,20.3142,19.3523
1980-02-09 01:09:41,1,-3.04,-4.17,0.02,0.469148,1,1,28090.7,19349.1,1691,0.96735251,1.0494509,79.431641,288.04883,8.22869,288.242,-10.8918,-6.55231,21.5347,17.8726
1980-02-09 01:10:21,1,-2.11,-4.76,0.5,0.930215,1,1,29620.4,19596.1,1691,0.96735412,1.0493879,79.423584,288.04858,7.87853,294.647,-18.61,-5.47691,22.1133,17.9864
1980-02-09 01:11:02,1,-1.96,-4.98,1.0,0.43589,1,1,30091.4,21355.8,1691,0.96735579,1.0493259,79.419678,288.04858,8.78952,291.095,-16.7528,-4.8128,22.2884,18.7765
1980-02-09 01:11:42,1,-1.44,-5.27,1.08,0.556866,1,1,28246.6,23104.4,1691,0.96735579,1.0493259,79.411865,288.04858,8.70169,294.269,-19.7743,-4.06054,21.5944,19.5302
1980-02-09 01:12:23,1,-0.81,-5.38,1.09,0.336749,1,1,27752.7,21356.6,1691,0.9673574,1.049263,79.407715,288.04834,8.8398,294.731,-18.9597,-6.84283,21.4048,18.7769
1980-02-09 01:13:04,1,-0.66,-5.74,1.12,0.369324,1,1,29622.4,22946.6,1691,0.96735907,1.049201,79.399658,288.0481,8.82593,295.037,-19.8083,-3.98486,22.114,19.4633
1980-02-09 01:13:44,1,-0.42,-5.8,1.08,0.29189,1,1,26859.1,23948.9,1691,0.96735907,1.049201,79.395752,288.0481,9.34831,296.704,-19.3552,-7.33344,21.0574,19.8839
1980-02-09 01:14:24,1,-0.981818,-4.86364,-0.109091,0.988613,1,1,37113.6,21638.6,1691,0.96736068,1.0491381,79.387695,288.04785,9.16117,294.168,-11.2883,-12.046,24.7528,18.9005
1980-02-09 01:15:05,1,-1.25455,-4.80909,-0.327273,0.366579,1,1,29812.9,24817.9,1691,0.96736234,1.0490761,79.379639,288.04761,8.75621,293.756,-13.1918,-10.9334,22.185,20.2414
1980-02-09 01:15:45,1,-0.83,-3.83,-1.56,0.405709,1,1,20313.4,25510.2,1691,0.96736234,1.0490761,79.375732,288.04761,9.45922,294.795,-13.1201,-12.2837,18.3126,20.5218
1980-02-09 01:16:26,1,-0.97,-4.27,-0.9,0.340881,1,1,29037.3,25306.0,1691,0.96736401,1.0490131,79.367676,288.04736,9.04586,292.35,-13.0047,-11.0055,21.8945,20.4395
1980-02-09 01:17:07,1,-0.76,-4.46,-0.68,0.405463,1,1,32818.4,23413.8,1691,0.96736562,1.0489511,79.36377,288.04736,8.98269,293.816,-14.584,-10.2886,23.2764,19.6605
1980-02-09 01:17:47,1,-2.27,-3.76,-1.32,0.511957,1,1,26461.5,28957.2,1691,0.96736562,1.0489511,79.355957,288.04736,9.36952,287.848,-13.8164,-9.26765,20.9009,21.8643
1980-02-09 01:18:28,1,-2.06,-3.46,-1.52,0.484149,1,1,18423.5,20156.2,1691,0.96736729,1.0488882,79.3479,288.04712,9.01281,293.055,-11.7266,-13.4868,17.4399,18.2416
1980-02-09 01:19:08,1,-2.58,-3.94,-1.42,0.337046,1,1,25730.4,20882.4,1691,0.9673689,1.0488262,79.34375,288.04688,7.28857,289.935,-9.11932,-4.73996,20.6101,18.5673
1980-02-09 01:19:49,1,-2.2,-3.67,-2.08,0.402119,1,1,21622.6,23306.9,1691,0.9673689,1.0488262,79.335938,288.04688,7.8754,293.139,-9.48181,-6.86749,18.8935,19.6155
1980-02-09 01:20:29,1,-2.38182,-3.95455,-1.53636,0.510712,1,1,23963.1,20410.9,1691,0.96737057,1.0487633,79.331787,288.04663,7.68059,291.476,-10.5565,-5.25511,19.8897,18.3565
1980-02-09 01:21:10,1,-2.22,-3.74,-2.12,0.345832,1,1,16973.6,18454.8,1691,0.96737218,1.0487013,79.32373,288.04639,7.1757,293.981,-7.94943,-5.36884,16.7396,17.4547
1980-02-09 01:21:50,1,-2.2,-3.6,-2.04,0.272764,1,1,20307.8,19484.8,1691,0.96737218,1.0487013,79.319824,288.04639,6.48669,293.087,-4.91048,-8.75591,18.31,17.9352
1980-02-09 01:22:31,1,-2.37273,-3.67273,-2.10909,0.284881,1,1,17370.9,19242.0,1691,0.96737385,1.0486383,79.312012,288.04639,7.7827,295.948,-8.42137,-8.06546,16.9344,17.8231
1980-02-09 01:23:11,1,-2.26364,-3.61818,-2.32727,0.286616,1,1,22967.2,23607.4,1691,0.96737552,1.0485764,79.303955,288.04614,7.14947,297.372,-5.68904,-8.10148,19.4721,19.7416
1980-02-09 01:23:52,1,-2.09,-3.48,-2.35,0.333167,1,1,19007.5,19955.4,1691,0.96737552,1.0485764,79.300049,288.04614,7.43932,297.889,-7.70869,-9.53058,17.7142,18.1505
1980-02-09 01:24:32,1,-2.27273,-3.56364,-1.66364,0.284881,1,1,19753.0,20242.4,1691,0.96737713,1.0485134,79.291992,288.0459,6.9114,294.692,-6.88557,-7.54316,18.0582,18.2805
1980-02-09 01:25:13,1,-1.83,-3.36,-1.99,0.345543,1,1,20489.5,20457.5,1691,0.9673788,1.0484514,79.287842,288.04565,8.14393,296.807,-7.98046,-10.2923,18.3918,18.3774
1980-02-09 01:25:53,1,-2.22727,-3.55455,-1.93636,0.312548,1,1,20434.6,24005.9,1691,0.9673788,1.0484514,79.280029,288.04565,7.30393,296.451,-4.56542,-10.0104,18.3671,19.9075
1980-02-09 01:26:34,1,-2.06,-3.48,-2.02,0.244131,1,1,17524.3,21521.0,1691,0.9673804,1.0483885,79.275879,288.04541,8.07921,296.16,-9.52235,-10.6004,17.009,18.849
1980-02-09 01:27:14,1,-2.39,-3.52,-1.59,0.330757,1,1,19566.6,22507.9,1691,0.96738207,1.0483265,79.268066,288.04541,7.10171,292.511,-5.42118,-8.23456,17.9728,19.2764
1980-02-09 01:27:55,1,-2.16,-3.52,-1.6,0.126491,1,1,19654.8,23357.6,1691,0.96738207,1.0483265,79.260254,288.04541,8.05535,294.079,-9.54627,-7.62048,18.0133,19.6369
1980-02-09 01:28:35,1,-2.02727,-3.44545,-1.6,0.334269,1,1,17972.0,22600.7,1691,0.96738368,1.0482635,79.256104,288.04517,7.47052,292.736,-5.4212,-7.0623,17.2249,19.3161
1980-02-09 01:29:16,1,-1.84,-3.41,-1.62,0.266271,1,1,17046.8,21220.5,1691,0.96738535,1.0482016,79.248047,288.04492,8.83816,292.886,-8.67213,-8.65864,16.7757,18.717
1980-02-09 01:29:56,1,-1.55,-3.51,-1.62,0.284605,1,1,18687.0,21758.4,1691,0.96738535,1.0482016,79.244141,288.04492,7.74416,291.234,-4.38122,-8.75826,17.5642,18.9527
1980-02-09 01:31:17,1,-1.62727,-3.57273,-1.8,0.30802,1,1,13940.1,19752.6,1691,0.96738863,1.0480766,79.228027,288.04443,7.2377,293.589,-4.34439,-8.48048,15.1702,18.058
1980-02-09 01:31:58,1,-1.48,-3.46,-1.58,0.32187,1,1,19039.0,21600.5,1691,0.96738863,1.0480757,79.224121,288.04443,8.97065,294.094,-11.0703,-9.28634,17.7288,18.8838
1980-02-09 01:32:38,1,-1.34,-3.62,-1.65,0.241868,1,1,21213.4,24119.9,1691,0.9673903,1.0480137,79.216064,288.04419,7.85413,292.57,-6.42171,-9.89491,18.7138,19.9547
1980-02-09 01:33:19,1,-0.88,-3.56,-1.74,0.553534,1,1,16349.8,21932.3,1691,0.96739191,1.0479507,79.212158,288.04419,8.20796,294.355,-9.60726,-10.2043,16.4291,19.0283
1980-02-09 01:33:59,1,-1.09091,-3.35455,-1.58182,0.53366,1,1,22520.2,24615.6,1691,0.96739191,1.0479507,79.204346,288.04419,8.07003,293.345,-6.36027,-10.064,19.2817,20.1587
1980-02-09 01:34:40,1,-0.9,-3.33636,-1.59091,0.48753,1,1,20129.6,22916.2,1691,0.96739358,1.0478888,79.200195,288.04395,8.8954,294.329,-9.61649,-10.5542,18.2295,19.4504
1980-02-09 01:35:20,1,-1.27273,-3.39091,-1.74545,0.392912,1,1,24740.0,22158.9,1691,0.96739519,1.0478258,79.192139,288.0437,7.96716,295.415,-7.28906,-10.5469,20.2096,19.1263
1980-02-09 01:36:01,1,-1.65,-3.5,-1.75,0.386005,1,1,21060.3,23156.2,1691,0.96739686,1.0477638,79.184082,288.04346,8.75112,293.466,-9.66656,-9.9194,18.6462,19.552
1980-02-09 01:36:41,1,-2.75,-3.68,-1.36,0.35,1,1,18799.9,22472.0,1691,0.96739686,1.0477638,79.180176,288.04346,7.19064,291.286,-6.60117,-7.9036,17.6172,19.261
1980-02-09 01:37:22,1,-2.27,-3.55,-1.48,0.310161,1,1,23032.2,24158.8,1691,0.96739846,1.0477009,79.172119,288.04321,7.97887,291.428,-8.72064,-7.90881,19.4996,19.9708